Weather reports worldwide

Advertisment
Valley, United Kingdom (3302): temperature & dewpoint: 18.03.2019 16:00:00 - 24.03.2019 16:00:00 (GMT)Valley, United Kingdom (3302): temperature -20cm & temperature -100cm: 18.03.2019 16:00:00 - 24.03.2019 16:00:00 (GMT)Valley, United Kingdom (3302): wind speed & gusts: 18.03.2019 16:00:00 - 24.03.2019 16:00:00 (GMT)Valley, United Kingdom (3302): wind direction: 18.03.2019 16:00:00 - 24.03.2019 16:00:00 (GMT)Valley, United Kingdom (3302): reduced air pressure: 18.03.2019 16:00:00 - 24.03.2019 16:00:00 (GMT)Valley, United Kingdom (3302): visibility: 18.03.2019 16:00:00 - 24.03.2019 16:00:00 (GMT)Valley, United Kingdom (3302): sunshine duration: 18.03.2019 16:00:00 - 24.03.2019 16:00:00 (GMT)Valley, United Kingdom (3302): precipitation: 18.03.2019 16:00:00 - 24.03.2019 16:00:00 (GMT)
Date & Time tt [°C] td [°C] tt -20cm [°C] tt -100cm [°C] ff [km/h] ff [kn] fx [km/h] fx [kn] dd ppp [hPa] vv [km] sd [min] rr [mm]
24.03.2019 16:00:00 9,9 5,0 - - 28 15 - - W 1030,5 30 6 -
24.03.2019 15:00:00 9,9 5,2 - - 22 12 - - SW 1030,9 27 6 0,0
24.03.2019 14:00:00 10,1 5,4 - - 28 15 - - SW 1031,2 23 48 0,0
24.03.2019 13:00:00 10,0 5,0 - - 29 16 - - SW 1032,1 10 60 0,0
24.03.2019 12:00:00 9,9 3,9 - - 34 18 - - W 1032,1 30 60 0,0
24.03.2019 11:00:00 9,3 3,9 - - 31 17 - - W 1032,5 45 60 0,0
24.03.2019 10:00:00 8,3 3,1 - - 28 15 - - W 1032,6 35 60 0,0
24.03.2019 09:00:00 7,6 3,0 8,4 9,0 26 14 - - W 1032,8 10 60 0,0
24.03.2019 08:00:00 6,8 2,9 - - 22 12 - - W 1032,7 30 60 0,0
24.03.2019 07:00:00 5,3 2,7 - - 13 7 - - W 1032,4 29 0 0,0
24.03.2019 06:00:00 5,2 2,2 - - 15 8 - - WNW 1032,4 10 0 0,0
24.03.2019 05:00:00 4,4 2,4 - - 9 5 - - W 1032,1 22 0 0,0
24.03.2019 04:00:00 3,6 2,0 - - 8 4 - - WSW 1032,1 40 0 0,0
24.03.2019 03:00:00 3,3 1,5 - - 5 3 - - W 1032,5 30 0 0,0
24.03.2019 02:00:00 3,9 1,9 - - 4 2 - - W 1033,1 27 0 0,0
24.03.2019 01:00:00 4,2 2,1 - - 5 3 - - W 1033,2 23 0 0,0
24.03.2019 00:00:00 5,6 2,7 - - 2 1 - - W 1033,4 26 - 0,0
23.03.2019 23:00:00 5,6 2,6 - - 11 6 - - SE 1033,6 24 0 0,0
23.03.2019 22:00:00 5,4 2,7 - - 8 4 - - ESE 1034,1 22 0 0,0
23.03.2019 21:00:00 5,8 2,7 - - 4 2 - - E 1034,4 10 0 0,0
23.03.2019 20:00:00 6,4 2,6 - - 4 2 - - NE 1034,3 22 0 0,0
23.03.2019 19:00:00 6,7 2,6 - - 5 3 - - NNE 1034,2 30 0 0,0
23.03.2019 18:00:00 7,5 2,2 - - 9 5 - - N 1034,1 10 0 0,0
23.03.2019 17:00:00 8,0 1,8 - - 11 6 - - N 1034,0 30 0 0,0
23.03.2019 16:00:00 8,4 1,7 - - 15 8 - - NNW 1034,1 10 24 0,0
23.03.2019 15:00:00 9,0 1,9 - - 16 9 - - NNW 1034,2 30 60 0,0
23.03.2019 14:00:00 9,1 1,9 - - 13 7 - - NW 1034,5 10 60 0,0
23.03.2019 13:00:00 9,0 2,0 - - 8 4 - - NNW 1034,9 27 6 0,0
23.03.2019 12:00:00 8,2 1,5 - - 11 6 - - N 1034,7 29 0 0,0
23.03.2019 11:00:00 8,6 1,8 - - 11 6 - - NNW 1034,5 29 6 0,0
23.03.2019 10:00:00 7,9 1,7 - - 11 6 - - NW 1034,4 21 0 0,0
23.03.2019 09:00:00 7,4 3,6 8,9 9,2 9 5 - - NW 1033,9 10 0 0,0
23.03.2019 08:00:00 5,3 3,6 - - 4 2 - - NW 1033,4 14 0 0,0
23.03.2019 07:00:00 4,3 2,2 - - 5 3 - - NW 1032,8 14 0 0,0
23.03.2019 06:00:00 5,2 2,4 - - 11 6 - - NW 1031,9 15 0 0,0
23.03.2019 05:00:00 4,5 2,0 - - 11 6 - - NW 1031,5 19 0 0,0
23.03.2019 04:00:00 5,3 2,7 - - 11 6 - - WNW 1031,1 17 0 0,0
23.03.2019 03:00:00 6,6 3,6 - - 13 7 - - WNW 1030,7 16 0 0,0
23.03.2019 02:00:00 6,9 3,5 - - 13 7 - - WNW 1030,4 22 0 0,0
23.03.2019 01:00:00 6,6 3,6 - - 11 6 - - WNW 1029,6 10 0 0,0
23.03.2019 00:00:00 7,0 3,4 - - 11 6 - - WNW 1029,1 20 - 0,0
22.03.2019 23:00:00 7,3 3,7 - - 16 9 - - WNW 1028,7 17 0 0,0
22.03.2019 22:00:00 7,7 5,8 - - 13 7 - - W 1027,9 17 0 0,0
22.03.2019 21:00:00 7,8 6,4 - - 13 7 - - W 1027,3 10 0 0,0
22.03.2019 20:00:00 8,5 7,6 - - 13 7 - - SW 1026,4 17 0 0,0
22.03.2019 19:00:00 8,7 8,2 - - 13 7 - - WSW 1025,6 12 0 0,0
22.03.2019 18:00:00 8,8 8,3 - - 15 8 - - WSW 1024,7 10 0 0,2
22.03.2019 17:00:00 9,2 8,8 - - 31 17 46 25 SW 1024,0 5 0 0,4
22.03.2019 16:00:00 9,4 8,8 - - 39 21 48 26 SSW 1023,5 6 0 1,6
22.03.2019 15:00:00 9,8 8,7 - - 37 20 50 27 SSW 1023,3 7 0 0,0
22.03.2019 14:00:00 9,9 8,6 - - 41 22 52 28 S 1023,3 10 0 0,0
22.03.2019 13:00:00 9,9 8,3 - - 42 23 55 30 SSW 1023,6 10 0 0,0
22.03.2019 12:00:00 10,3 8,0 - - 52 28 67 36 S 1023,3 10 0 0,0
22.03.2019 11:00:00 9,7 7,9 - - 41 22 54 29 S 1023,5 10 0 0,0
22.03.2019 10:00:00 9,4 8,8 - - 35 19 54 29 S 1024,0 10 0 0,0
22.03.2019 09:00:00 9,3 7,5 9,7 9,2 37 20 52 28 S 1024,2 10 0 0,0
22.03.2019 08:00:00 9,0 7,8 - - 37 20 59 32 S 1024,7 10 0 0,0
22.03.2019 07:00:00 8,8 7,7 - - 46 25 63 34 S 1024,3 10 0 0,0
22.03.2019 06:00:00 9,0 8,5 - - 42 23 52 28 S 1024,3 10 0 0,0
22.03.2019 05:00:00 9,2 8,5 - - 35 19 - - S 1024,5 8 0 0,0
22.03.2019 04:00:00 9,3 8,8 - - 34 18 - - S 1025,0 13 0 0,0
22.03.2019 03:00:00 9,3 9,0 - - 29 16 - - S 1025,8 12 0 0,0
22.03.2019 02:00:00 8,8 8,6 - - 29 16 - - S 1026,5 3,0 0 0,0
22.03.2019 01:00:00 8,6 8,5 - - 29 16 - - S 1027,4 6 0 0,0
22.03.2019 00:00:00 8,6 8,5 - - 29 16 - - S 1027,9 2,6 - 0,0
21.03.2019 23:00:00 8,6 8,4 - - 35 19 - - S 1028,6 7 0 0,0
21.03.2019 22:00:00 8,3 8,1 - - 34 18 - - SSW 1029,9 3,7 0 0,0
21.03.2019 21:00:00 8,2 7,9 - - 29 16 - - S 1029,9 4,7 0 0,0
21.03.2019 20:00:00 7,9 7,6 - - 26 14 - - S 1030,0 12 0 0,0
21.03.2019 19:00:00 8,0 7,5 - - 28 15 - - S 1030,8 12 0 0,0
21.03.2019 18:00:00 8,9 8,1 - - 26 14 - - SSW 1030,3 10 0 0,0
21.03.2019 17:00:00 9,1 8,3 - - 28 15 - - SSW 1030,9 10 0 0,0
21.03.2019 16:00:00 9,9 8,8 - - 24 13 - - S 1031,3 10 0 0,0
21.03.2019 15:00:00 10,5 9,2 - - 18 10 - - S 1031,6 10 0 0,0
21.03.2019 14:00:00 10,5 9,3 - - 18 10 - - S 1032,1 10 0 0,0
21.03.2019 13:00:00 10,5 10,0 - - 18 10 - - S 1032,6 10 0 0,0
21.03.2019 12:00:00 10,6 10,5 - - 21 11 - - S 1032,9 10 0 0,0
21.03.2019 11:00:00 10,0 10,0 - - 18 10 - - SSW 1033,0 10 0 0,0
21.03.2019 10:00:00 9,5 9,5 - - 18 10 - - S 1033,1 10 0 0,0
21.03.2019 09:00:00 9,2 9,1 9,2 9,0 18 10 - - SSW 1032,9 0,7 0 0,0
21.03.2019 08:00:00 8,8 8,7 - - 22 12 - - SSW 1032,6 0,7 0 0,0
21.03.2019 07:00:00 8,6 8,5 - - 18 10 - - SW 1031,9 0,4 0 0,0
21.03.2019 06:00:00 7,8 7,8 - - 24 13 - - SSW 1031,5 0,3 0 0,0
21.03.2019 05:00:00 8,0 7,9 - - 24 13 - - SSW 1030,9 0,3 0 0,0
21.03.2019 04:00:00 8,3 8,2 - - 21 11 - - SSW 1030,7 0,3 0 0,0
21.03.2019 03:00:00 8,8 8,7 - - 22 12 - - SSW 1030,5 0,4 0 0,0
21.03.2019 02:00:00 8,9 8,8 - - 24 13 - - S 1030,6 0,6 0 0,0
21.03.2019 01:00:00 9,0 8,9 - - 26 14 - - SSW 1030,8 0,5 0 0,0
21.03.2019 00:00:00 9,1 9,0 - - 26 14 - - S 1030,8 0,8 - 0,0
20.03.2019 23:00:00 9,0 8,9 - - 29 16 - - S 1031,1 2,1 0 0,0
20.03.2019 22:00:00 8,7 8,6 - - 37 20 48 26 S 1030,9 2,4 0 0,0
20.03.2019 21:00:00 8,5 8,4 - - 41 22 50 27 S 1030,8 2,2 0 0,0
20.03.2019 20:00:00 8,4 8,2 - - 35 19 48 26 S 1030,7 7 0 0,0
20.03.2019 19:00:00 8,2 7,9 - - 37 20 46 25 S 1030,5 4,0 0 0,0
20.03.2019 18:00:00 8,5 8,1 - - 39 21 48 26 S 1030,3 5 0 0,0
20.03.2019 17:00:00 8,8 8,4 - - 37 20 48 26 S 1030,1 8 0 0,0
20.03.2019 16:00:00 8,8 8,5 - - 35 19 48 26 S 1030,2 3,5 0 0,0
20.03.2019 15:00:00 9,2 8,8 - - 39 21 48 26 S 1030,5 8 0 0,0
20.03.2019 14:00:00 9,0 8,8 - - 39 21 - - S 1030,5 4,0 0 0,0
20.03.2019 13:00:00 9,0 8,8 - - 35 19 - - S 1031,1 3,0 0 0,0
20.03.2019 12:00:00 8,9 8,8 - - 31 17 - - S 1031,1 10 0 0,0
20.03.2019 11:00:00 8,9 8,8 - - 31 17 - - S 1031,2 7 0 0,0
20.03.2019 10:00:00 8,6 8,5 - - 26 14 - - S 1030,8 10 0 0,0
20.03.2019 09:00:00 8,1 8,1 9,0 8,7 31 17 - - S 1030,7 10 0 0,0
20.03.2019 08:00:00 7,7 7,6 - - 31 17 - - S 1030,4 10 0 0,0
20.03.2019 07:00:00 7,5 7,4 - - 31 17 - - S 1030,1 20 0 0,0
20.03.2019 06:00:00 7,6 7,6 - - 29 16 - - SSW 1029,4 1,9 0 0,0
20.03.2019 05:00:00 7,8 7,7 - - 29 16 - - S 1029,3 3,3 0 0,0
20.03.2019 04:00:00 7,9 7,8 - - 28 15 - - S 1028,9 7 0 0,0
20.03.2019 03:00:00 7,8 7,7 - - 22 12 - - SSW 1029,2 0,7 0 0,0
20.03.2019 02:00:00 7,8 7,7 - - 24 13 - - SSW 1029,2 0,4 0 0,0
20.03.2019 01:00:00 7,8 7,7 - - 24 13 - - SSW 1028,9 0,4 0 0,0
20.03.2019 00:00:00 7,9 7,8 - - 24 13 - - SSW 1028,7 0,4 - 0,0
19.03.2019 23:00:00 8,0 7,9 - - 22 12 - - SSW 1028,4 0,6 0 0,0
19.03.2019 22:00:00 8,2 8,1 - - 22 12 - - SSW 1028,1 0,3 0 0,0
19.03.2019 21:00:00 8,3 8,2 - - 24 13 - - SSW 1027,5 0,4 0 0,0
19.03.2019 20:00:00 8,4 8,2 - - 26 14 - - SSW 1027,1 0,4 0 0,0
19.03.2019 19:00:00 8,9 8,7 - - 22 12 - - SSW 1026,8 3,0 0 0,0
19.03.2019 18:00:00 9,0 8,8 - - 18 10 - - SSW 1026,6 10 0 0,0
19.03.2019 17:00:00 8,9 8,6 - - 21 11 - - SSW 1026,3 8 0 0,0
19.03.2019 16:00:00 9,0 8,6 - - 24 13 - - SSW 1026,0 1,2 0 0,0
19.03.2019 15:00:00 9,2 8,5 - - 34 18 - - S 1025,4 5 0 0,0
19.03.2019 14:00:00 9,1 8,5 - - 28 15 - - S 1025,2 10 0 0,0
19.03.2019 13:00:00 8,9 8,3 - - 28 15 - - SSW 1025,8 10 0 0,0
19.03.2019 12:00:00 9,7 7,8 - - 29 16 - - SSW 1026,0 10 0 0,0
19.03.2019 11:00:00 9,6 7,7 - - 24 13 - - SSW 1025,6 40 6 0,0
19.03.2019 10:00:00 9,8 8,7 - - 22 12 - - SSW 1025,5 10 24 0,0
19.03.2019 09:00:00 9,1 8,4 8,5 8,5 16 9 - - SSW 1025,3 25 0 0,0
19.03.2019 08:00:00 8,6 7,9 - - 13 7 - - S 1025,0 10 0 0,0
19.03.2019 07:00:00 8,3 7,4 - - 8 4 - - W 1024,7 10 0 0,0
19.03.2019 06:00:00 8,3 7,8 - - 13 7 - - W 1024,5 11 0 0,0
19.03.2019 05:00:00 8,3 7,8 - - 9 5 - - WSW 1024,4 9 0 0,0
19.03.2019 04:00:00 8,1 7,6 - - 5 3 - - SW 1024,1 11 0 0,0
19.03.2019 03:00:00 8,4 7,9 - - 9 5 - - W 1024,0 17 0 0,0
19.03.2019 02:00:00 8,1 7,5 - - 4 2 - - W 1023,9 21 0 0,0
19.03.2019 01:00:00 8,4 7,7 - - 8 4 - - WNW 1023,9 20 0 0,0
19.03.2019 00:00:00 8,6 8,0 - - 13 7 - - W 1023,8 15 - 0,0
18.03.2019 23:00:00 8,3 7,7 - - 8 4 - - WNW 1023,4 17 0 0,0
18.03.2019 22:00:00 8,1 7,5 - - 11 6 - - W 1023,0 10 0 0,0
18.03.2019 21:00:00 8,0 7,4 - - 5 3 - - W 1022,6 10 0 0,0
18.03.2019 20:00:00 8,5 8,0 - - 8 4 - - WSW 1022,2 10 0 0,2
18.03.2019 19:00:00 8,4 7,8 - - 16 9 - - WSW 1021,7 8 0 0,0
18.03.2019 18:00:00 9,0 7,8 - - 21 11 - - WSW 1021,1 10 0 0,0
18.03.2019 17:00:00 8,7 7,7 - - 15 8 - - SW 1020,5 10 0 0,0
18.03.2019 16:00:00 8,7 7,6 - - 21 11 - - SW 1020,2 50 0 0,0

tt = temperature
td = dewpoint
tt -20cm = temperature -20cm
tt -100cm = temperature -100cm
ff = wind speed
fx = gusts
dd = wind direction
ppp = reduced air pressure
vv = visibility
sd = sunshine duration
rr = precipitation

Next stations